MMS 2

Last updated on Thu Jul 03 2025 00:02:38 GMT+0000 (Coordinated Universal Time)

1 40483U 15011B 25183.58335648 -.00000909 00000+0 00000+0 0 9995 2 40483 65.2594 354.8451 8694284 159.8820 225.3963 0.28486327 1355
UTC large
Height (km)
Speed (km/s)
/
Latitude / Longitude
Inclination (degrees)
Orbital Period (minutes)
Azimuth
Elevation
Range (km)
Doppler Factor

Next 0 passes for location: London (51.5072 / 0.1276)

Sorry there are no passes over London.